Location: Unnamed
(47.6264°N, 122.3366°W)
Time: 06:54:18
(UTC-07:00)

X-37B - Pass Details

Date: 29 June 2021
Orbit: 383 x 392 km, 45.0° (Epoch: 01 July)

Event Time Altitude Azimuth Distance (km) Brightness Sun altitude
Rises 23:20:35 0° 273° (W) 2,258 4.9 -14.8°
Reaches altitude 10° 23:22:45 10° 264° (W) 1,403 3.6 -15.0°
Maximum altitude 23:25:39 34° 197° (SSW) 652 1.3 -15.2°
Enters shadow 23:25:50 34° 188° (S) 657 1.3 -15.2°
